Location: Blackfoot
(53.5367°N, 112.7800°W)
Time: 10:14:24
(UTC-06:00)

Amateur Radio Satellites - All Passes

Search period start: 22 September 2014 09:44
Search period end: 23 September 2014 09:44
Location: Blackfoot, 53.5367°N, 112.7800°W

Satellite Date Start Highest point End Downlink Frequencies (MHz)
Time Altitude Azimuth
AO-7 22 Sep 09:54:25 09:59:21 18° 334° (NNW) 10:04:17 29.400 - 29.500 MHz
UOSAT-12 22 Sep 10:03:21 10:06:12 16° 248° (WSW) 10:09:01 437.025 FM, 437.400 FM
SO-67 22 Sep 10:16:54 10:18:53 15° 301° (WNW) 10:20:53 435.3500 MHz FM
MaSat-1 22 Sep 10:31:55 10:36:28 35° 317° (NW) 10:40:45 437.345 MHz
JAS-2 22 Sep 10:40:10 10:41:37 11° 319° (NW) 10:43:05 435.800 - 435.900 CW/SSB, 435.910 FM
FUNcube-1 22 Sep 10:53:38 10:56:58 19° 89° (E) 11:00:16 145.950 - 145.970 MHz USB
Oscar 11 22 Sep 10:55:16 10:59:20 37° 97° (E) 11:03:21 145.825 FM, Beacon 2401.500 USB
RS-15 22 Sep 11:04:40 11:15:25 55° 23° (NNE) 11:26:28 29.354 - 29.394 USB, Beacon 29.352 USB
UKube-1 22 Sep 11:14:54 11:19:16 67° 103° (ESE) 11:23:37 145.840 MHz, 145.915 MHz
HO-68 22 Sep 11:21:51 11:29:04 82° 292° (WNW) 11:36:15 435.675 MHz FM
JAS-1B 22 Sep 11:26:58 11:28:45 11° 35° (NE) 11:30:29 435.800 - 435.900 CW/SSB
Sapphire 22 Sep 11:35:47 11:39:04 17° 106° (ESE) 11:42:22 437.095 MHz 1200 baud AX-25 AFSK
ZACube-1 22 Sep 11:36:01 11:40:28 43° 97° (E) 11:44:50 437.345 MHz
AO-7 22 Sep 11:46:07 11:48:57 12° 2° (N) 11:51:47 29.400 - 29.500 MHz
PCSat 22 Sep 12:00:58 12:05:25 27° 112° (ESE) 12:09:53 145.825 MHz
Oscar 16 22 Sep 12:07:48 12:11:00 17° 50° (NE) 12:14:12 437.025 USB, Beacon 2401.1428
MaSat-1 22 Sep 12:11:56 12:14:25 14° 339° (NNW) 12:16:47 437.345 MHz
FUNcube-1 22 Sep 12:29:12 12:33:51 69° 288° (WNW) 12:38:24 145.950 - 145.970 MHz USB
Oscar 11 22 Sep 12:31:35 12:35:30 33° 296° (WNW) 12:39:22 145.825 FM, Beacon 2401.500 USB
UKube-1 22 Sep 12:51:51 12:55:05 21° 303° (WNW) 12:58:18 145.840 MHz, 145.915 MHz
ITAMSAT 1 22 Sep 12:57:11 13:00:43 19° 52° (NE) 13:04:16 435.822 SSB
Uribyol 2 22 Sep 13:00:17 13:04:02 21° 53° (NE) 13:07:49 436.500 FM
Gurwin Techsat 1B 22 Sep 13:05:09 13:07:34 13° 46° (NE) 13:10:00 435.225 FM
Oscar 19 22 Sep 13:05:33 13:10:18 37° 62° (ENE) 13:15:04 437.125 CW, 437.150 USB
HO-68 22 Sep 13:10:16 13:15:55 26° 314° (NW) 13:21:33 435.675 MHz FM
JAS-1B 22 Sep 13:10:55 13:17:46 37° 59° (ENE) 13:23:40 435.800 - 435.900 CW/SSB
ZACube-1 22 Sep 13:12:39 13:16:46 32° 297° (WNW) 13:20:50 437.345 MHz
Sapphire 22 Sep 13:16:15 13:21:39 77° 126° (SE) 13:27:06 437.095 MHz 1200 baud AX-25 AFSK
RS-15 22 Sep 13:17:36 13:28:37 78° 232° (SW) 13:40:03 29.354 - 29.394 USB, Beacon 29.352 USB
AO-27 22 Sep 13:31:43 13:36:14 31° 59° (ENE) 13:40:46 436.795 MHz FM
AO-7 22 Sep 13:33:20 13:38:38 19° 29° (NNE) 13:43:56 29.400 - 29.500 MHz
AO-Echo 22 Sep 13:33:21 13:37:28 31° 62° (ENE) 13:41:37 ?
TMSAT-1 22 Sep 13:38:55 13:42:16 17° 50° (NE) 13:45:39 436.925 FM
PCSat 22 Sep 13:42:59 13:48:24 73° 313° (NW) 13:53:52 145.825 MHz
Oscar 16 22 Sep 13:44:22 13:49:33 72° 71° (ENE) 13:54:46 437.025 USB, Beacon 2401.1428
MaSat-1 22 Sep 13:52:38 13:53:01 10° 3° (N) 13:53:24 437.345 MHz
FUNcube-1 22 Sep 14:07:05 14:09:26 14° 308° (NW) 14:11:48 145.950 - 145.970 MHz USB
ITAMSAT 1 22 Sep 14:34:21 14:39:32 84° 72° (ENE) 14:44:46 435.822 SSB
Uribyol 2 22 Sep 14:37:44 14:42:55 88° 253° (WSW) 14:48:10 436.500 FM
Gurwin Techsat 1B 22 Sep 14:41:20 14:46:29 54° 67° (ENE) 14:51:40 435.225 FM
Oscar 19 22 Sep 14:44:41 14:49:37 43° 262° (W) 14:54:35 437.125 CW, 437.150 USB
Uosat F 22 Sep 14:48:23 14:50:54 14° 48° (NE) 14:53:26 435.120 FM
JAS-1B 22 Sep 15:00:15 15:08:14 64° 257° (WSW) 15:14:54 435.800 - 435.900 CW/SSB
HO-68 22 Sep 15:00:28 15:01:17 10° 339° (NNW) 15:02:05 435.675 MHz FM
Sapphire 22 Sep 15:00:41 15:05:36 34° 329° (NNW) 15:10:32 437.095 MHz 1200 baud AX-25 AFSK
AO-27 22 Sep 15:10:31 15:15:34 52° 260° (W) 15:20:40 436.795 MHz FM
AO-Echo 22 Sep 15:11:41 15:16:10 44° 262° (W) 15:20:41 ?
TMSAT-1 22 Sep 15:16:08 15:21:24 75° 71° (ENE) 15:26:43 436.925 FM
AO-7 22 Sep 15:21:47 15:29:34 47° 54° (NE) 15:37:21 29.400 - 29.500 MHz
Oscar 16 22 Sep 15:25:30 15:29:27 22° 271° (W) 15:33:26 437.025 USB, Beacon 2401.1428
PCSat 22 Sep 15:28:07 15:32:43 27° 336° (NNW) 15:37:19 145.825 MHz
MaSat-1 22 Sep 15:28:38 15:31:30 17° 27° (NNE) 15:34:07 437.345 MHz
RS-15 22 Sep 15:30:45 15:39:20 27° 257° (WSW) 15:48:10 29.354 - 29.394 USB, Beacon 29.352 USB
ITAMSAT 1 22 Sep 16:16:13 16:19:44 18° 272° (W) 16:23:16 435.822 SSB
Uribyol 2 22 Sep 16:19:59 16:23:12 16° 274° (W) 16:26:25 436.500 FM
Gurwin Techsat 1B 22 Sep 16:22:07 16:26:45 30° 267° (W) 16:31:24 435.225 FM
Uosat F 22 Sep 16:23:52 16:28:47 61° 68° (ENE) 16:33:45 435.120 FM
Saudisat 1A 22 Sep 16:45:41 16:48:36 18° 114° (ESE) 16:51:32 436.775 MHz
Sapphire 22 Sep 16:46:39 16:50:37 20° 354° (N) 16:54:35 437.095 MHz 1200 baud AX-25 AFSK
JAS-1B 22 Sep 16:55:53 16:59:59 15° 276° (W) 17:03:48 435.800 - 435.900 CW/SSB
TMSAT-1 22 Sep 16:57:56 17:01:55 21° 271° (W) 17:05:56 436.925 FM
Hamsat 22 Sep 17:01:04 17:04:09 19° 58° (ENE) 17:07:15 145.90 MHz
MaSat-1 22 Sep 17:04:58 17:09:04 67° 52° (NE) 17:12:33 437.345 MHz
PCSat 22 Sep 17:13:58 17:17:54 20° 2° (N) 17:21:50 145.825 MHz
AO-7 22 Sep 17:14:06 17:22:16 59° 256° (WSW) 17:30:28 29.400 - 29.500 MHz
JAS-2 22 Sep 17:27:04 17:31:52 40° 63° (ENE) 17:36:50 435.800 - 435.900 CW/SSB, 435.910 FM
OPAL 22 Sep 17:31:06 17:35:03 22° 92° (E) 17:38:56 ?
Uosat F 22 Sep 18:03:57 18:07:59 24° 268° (W) 18:12:03 435.120 FM
Saudisat 1A 22 Sep 18:23:12 18:27:37 90° 125° (SE) 18:32:04 436.775 MHz
HO-68 22 Sep 18:26:54 18:30:30 15° 32° (NNE) 18:34:06 435.675 MHz FM
Sapphire 22 Sep 18:31:25 18:35:52 25° 20° (NNE) 18:40:18 437.095 MHz 1200 baud AX-25 AFSK
Hamsat 22 Sep 18:35:20 18:39:41 71° 257° (WSW) 18:44:03 145.90 MHz
MaSat-1 22 Sep 18:42:46 18:45:06 16° 256° (WSW) 18:47:15 437.345 MHz
PCSat 22 Sep 18:58:13 19:03:00 30° 28° (NNE) 19:07:47 145.825 MHz
OPAL 22 Sep 19:09:17 19:14:29 73° 292° (WNW) 19:19:35 ?
JAS-2 22 Sep 19:12:22 19:17:08 37° 264° (W) 19:22:02 435.800 - 435.900 CW/SSB, 435.910 FM
AO-7 22 Sep 19:12:39 19:16:59 15° 280° (W) 19:21:20 29.400 - 29.500 MHz
SO-67 22 Sep 19:21:33 19:24:57 57° 72° (ENE) 19:28:22 435.3500 MHz FM
KITSAT 1 22 Sep 19:23:12 19:30:29 39° 113° (ESE) 19:37:47 435.175 FM
STRAND 1 22 Sep 19:55:37 20:00:23 36° 96° (E) 20:05:07 ?
Saudisat 1A 22 Sep 20:03:52 20:07:44 28° 337° (NNW) 20:11:36 436.775 MHz
HO-68 22 Sep 20:09:54 20:16:27 41° 56° (NE) 20:23:02 435.675 MHz FM
Sapphire 22 Sep 20:14:56 20:20:21 61° 44° (NE) 20:25:43 437.095 MHz 1200 baud AX-25 AFSK
Hamsat 22 Sep 20:15:48 20:16:28 10° 277° (W) 20:17:09 145.90 MHz
Oscar 11 22 Sep 20:23:26 20:25:09 12° 51° (NE) 20:26:52 145.825 FM, Beacon 2401.500 USB
PCSat 22 Sep 20:41:38 20:47:07 89° 51° (NE) 20:52:33 145.825 MHz
UKube-1 22 Sep 20:41:44 20:45:01 21° 58° (ENE) 20:48:19 145.840 MHz, 145.915 MHz
OPAL 22 Sep 20:49:14 20:52:34 18° 313° (NW) 20:55:53 ?
SO-67 22 Sep 20:56:26 20:58:21 14° 271° (W) 21:00:16 435.3500 MHz FM
ZACube-1 22 Sep 21:04:54 21:07:17 14° 52° (NE) 21:09:42 437.345 MHz
KITSAT 1 22 Sep 21:17:21 21:25:27 74° 316° (NW) 21:33:35 435.175 FM
SO-50 22 Sep 21:24:53 21:25:24 10° 108° (ESE) 21:25:55 436.795 FM
STRAND 1 22 Sep 21:34:50 21:39:40 43° 296° (WNW) 21:44:30 ?
Saudisat 1A 22 Sep 21:45:18 21:48:35 20° 1° (N) 21:51:51 436.775 MHz
FUNcube-1 22 Sep 21:55:53 21:59:54 33° 63° (ENE) 22:04:00 145.950 - 145.970 MHz USB
Oscar 11 22 Sep 21:56:12 22:00:32 64° 71° (ENE) 22:04:53 145.825 FM, Beacon 2401.500 USB
HO-68 22 Sep 21:56:58 22:04:00 59° 258° (WSW) 22:11:05 435.675 MHz FM
Sapphire 22 Sep 21:58:43 22:03:32 33° 246° (WSW) 22:08:20 437.095 MHz 1200 baud AX-25 AFSK
Oscar 10/S400 22 Sep 22:14:05 22:43:18 42° 184° (S) 04:54:58 145.825 - 145.975 CW/USB, Beacon 145.810 USB
UKube-1 22 Sep 22:16:34 22:20:52 63° 257° (WSW) 22:25:12 145.840 MHz, 145.915 MHz
PCSat 22 Sep 22:25:57 22:29:53 21° 252° (WSW) 22:33:49 145.825 MHz
ZACube-1 22 Sep 22:38:26 22:42:55 73° 72° (ENE) 22:47:32 437.345 MHz
SO-50 22 Sep 23:00:32 23:04:58 56° 128° (SE) 23:09:32 436.795 FM
KITSAT 1 22 Sep 23:14:42 23:22:09 38° 343° (NNW) 23:29:37 435.175 FM
STRAND 1 22 Sep 23:16:43 23:17:39 11° 317° (NW) 23:18:36 ?
AO-40 22 Sep 23:17:53 01:23:15 18° 207° (SSW) 04:29:29 Beacon 2401.320
Saudisat 1A 22 Sep 23:25:29 23:29:24 30° 25° (NNE) 23:33:19 436.775 MHz
FUNcube-1 22 Sep 23:31:59 23:36:13 40° 263° (W) 23:40:34 145.950 - 145.970 MHz USB
Oscar 11 22 Sep 23:34:01 23:37:09 19° 270° (W) 23:40:18 145.825 FM, Beacon 2401.500 USB
HO-68 22 Sep 23:49:59 23:53:20 14° 280° (W) 23:56:41 435.675 MHz FM
ZACube-1 23 Sep 00:16:47 00:19:52 18° 272° (W) 00:23:00 437.345 MHz
UOSAT-12 23 Sep 00:18:50 00:23:05 36° 122° (ESE) 00:27:25 437.025 FM, 437.400 FM
SO-50 23 Sep 00:41:27 00:45:45 39° 330° (NNW) 00:50:11 436.795 FM
Saudisat 1A 23 Sep 01:05:01 01:09:28 84° 227° (SW) 01:13:53 436.775 MHz
KITSAT 1 23 Sep 01:12:22 01:19:44 36° 12° (NNE) 01:27:05 435.175 FM
Oscar 16 23 Sep 01:50:46 01:53:56 16° 86° (E) 01:57:05 437.025 USB, Beacon 2401.1428
UOSAT-12 23 Sep 01:58:32 02:03:08 54° 323° (NW) 02:07:49 437.025 FM, 437.400 FM
SO-50 23 Sep 02:23:50 02:27:29 22° 354° (N) 02:31:12 436.795 FM
JAS-1B 23 Sep 02:38:45 02:43:12 22° 89° (E) 02:47:34 435.800 - 435.900 CW/SSB
ITAMSAT 1 23 Sep 02:41:32 02:45:13 19° 88° (E) 02:48:54 435.822 SSB
Uribyol 2 23 Sep 02:44:36 02:48:34 21° 90° (E) 02:52:30 436.500 FM
Saudisat 1A 23 Sep 02:45:41 02:48:25 16° 246° (WSW) 02:51:09 436.775 MHz
Oscar 19 23 Sep 02:49:26 02:54:23 43° 98° (E) 02:59:17 437.125 CW, 437.150 USB
Gurwin Techsat 1B 23 Sep 02:52:35 02:55:02 13° 83° (E) 02:57:27 435.225 FM
KITSAT 1 23 Sep 03:08:35 03:16:40 65° 39° (NE) 03:24:41 435.175 FM
AO-Echo 23 Sep 03:11:45 03:16:14 36° 96° (E) 03:20:49 ?
OPAL 23 Sep 03:15:19 03:18:47 18° 48° (NE) 03:22:15 ?
AO-27 23 Sep 03:16:55 03:21:43 35° 96° (E) 03:26:29 436.795 MHz FM
TMSAT-1 23 Sep 03:26:16 03:29:58 19° 87° (E) 03:33:38 436.925 FM
Oscar 16 23 Sep 03:28:51 03:34:05 87° 106° (ESE) 03:39:16 437.025 USB, Beacon 2401.1428
ISS 23 Sep 03:33:51 03:36:53 33° 156° (SSE) 03:39:55 145.800 FM
UOSAT-12 23 Sep 03:40:21 03:44:14 24° 346° (NNW) 03:48:08 437.025 FM, 437.400 FM
RS-15 23 Sep 03:50:05 03:59:23 34° 107° (ESE) 04:08:38 29.354 - 29.394 USB, Beacon 29.352 USB
SO-50 23 Sep 04:05:24 04:09:25 27° 18° (NNE) 04:13:30 436.795 FM
ITAMSAT 1 23 Sep 04:20:08 04:25:23 81° 288° (WNW) 04:30:36 435.822 SSB
Uribyol 2 23 Sep 04:23:22 04:28:36 74° 289° (WNW) 04:33:49 436.500 FM
Uosat F 23 Sep 04:27:15 04:28:54 11° 83° (E) 04:30:33 435.120 FM
JAS-1B 23 Sep 04:28:50 04:34:39 70° 291° (WNW) 04:40:18 435.800 - 435.900 CW/SSB
Oscar 19 23 Sep 04:28:58 04:33:42 37° 298° (WNW) 04:38:23 437.125 CW, 437.150 USB
Gurwin Techsat 1B 23 Sep 04:30:40 04:36:00 70° 103° (ESE) 04:41:18 435.225 FM
AO-Echo 23 Sep 04:50:35 04:55:05 40° 295° (WNW) 04:59:41 ?
OPAL 23 Sep 04:51:42 04:56:54 76° 68° (ENE) 05:02:09 ?
AO-27 23 Sep 04:56:25 05:01:22 45° 296° (WNW) 05:06:19 436.795 MHz FM
KITSAT 1 23 Sep 05:04:18 05:11:55 47° 243° (WSW) 05:19:30 435.175 FM
TMSAT-1 23 Sep 05:05:14 05:10:35 84° 287° (WNW) 05:15:54 436.925 FM
AO-7 23 Sep 05:08:13 05:15:38 35° 94° (E) 05:23:01 29.400 - 29.500 MHz
Oscar 16 23 Sep 05:09:05 05:12:51 21° 307° (NW) 05:16:36 437.025 USB, Beacon 2401.1428
ISS 23 Sep 05:10:01 05:13:19 63° 176° (S) 05:16:37 145.800 FM
UOSAT-12 23 Sep 05:21:58 05:25:47 23° 11° (N) 05:29:36 437.025 FM, 437.400 FM
STRAND 1 23 Sep 05:40:43 05:44:25 21° 53° (NE) 05:48:08 ?
SO-50 23 Sep 05:46:00 05:50:46 68° 41° (NE) 05:55:36 436.795 FM
RS-15 23 Sep 05:59:30 06:10:30 90° 313° (NW) 06:21:33 29.354 - 29.394 USB, Beacon 29.352 USB
ITAMSAT 1 23 Sep 06:00:40 06:04:10 19° 309° (NW) 06:07:40 435.822 SSB
Uosat F 23 Sep 06:03:40 06:08:41 66° 103° (ESE) 06:13:42 435.120 FM
Uribyol 2 23 Sep 06:04:01 06:07:18 17° 310° (NW) 06:10:35 436.500 FM
Gurwin Techsat 1B 23 Sep 06:11:17 06:15:34 25° 304° (NW) 06:19:50 435.225 FM
JAS-2 23 Sep 06:12:34 06:17:20 23° 90° (E) 06:22:29 435.800 - 435.900 CW/SSB, 435.910 FM
Hamsat 23 Sep 06:16:00 06:18:21 14° 86° (E) 06:20:40 145.90 MHz
JAS-1B 23 Sep 06:20:46 06:24:20 17° 316° (NW) 06:27:48 435.800 - 435.900 CW/SSB
OPAL 23 Sep 06:32:26 06:36:21 21° 268° (W) 06:40:19 ?
AO-27 23 Sep 06:38:12 06:39:42 11° 317° (NW) 06:41:13 436.795 MHz FM
TMSAT-1 23 Sep 06:46:09 06:49:50 19° 308° (NW) 06:53:30 436.925 FM
ISS 23 Sep 06:46:38 06:49:51 46° 196° (SSW) 06:53:03 145.800 FM
AO-7 23 Sep 07:00:52 07:09:08 73° 297° (WNW) 07:17:22 29.400 - 29.500 MHz
UOSAT-12 23 Sep 07:02:22 07:06:59 47° 34° (NE) 07:11:32 437.025 FM, 437.400 FM
KITSAT 1 23 Sep 07:03:24 07:05:17 11° 266° (W) 07:07:11 435.175 FM
STRAND 1 23 Sep 07:17:56 07:23:03 85° 254° (WSW) 07:28:12 ?
SO-50 23 Sep 07:26:59 07:31:03 28° 241° (WSW) 07:35:09 436.795 FM
Uosat F 23 Sep 07:43:04 07:47:07 25° 303° (WNW) 07:51:10 435.120 FM
Hamsat 23 Sep 07:50:38 07:54:55 81° 286° (WNW) 07:59:08 145.90 MHz
JAS-2 23 Sep 07:57:02 08:03:00 82° 288° (WNW) 08:09:46 435.800 - 435.900 CW/SSB, 435.910 FM
SO-67 23 Sep 08:12:02 08:15:05 28° 95° (E) 08:18:07 435.3500 MHz FM
RS-15 23 Sep 08:13:32 08:24:07 51° 344° (NNW) 08:34:52 29.354 - 29.394 USB, Beacon 29.352 USB
ISS 23 Sep 08:23:50 08:26:01 16° 215° (SW) 08:28:12 145.800 FM
MaSat-1 23 Sep 08:31:50 08:36:36 47° 116° (ESE) 08:41:09 437.345 MHz
UOSAT-12 23 Sep 08:42:40 08:47:11 44° 235° (SW) 08:51:38 437.025 FM, 437.400 FM
AO-7 23 Sep 08:54:16 09:00:46 27° 320° (NW) 09:07:16 29.400 - 29.500 MHz
STRAND 1 23 Sep 09:00:04 09:03:03 16° 274° (W) 09:06:03 ?
HO-68 23 Sep 09:18:06 09:23:22 21° 87° (E) 09:28:36 435.675 MHz FM
Hamsat 23 Sep 09:27:59 09:30:13 14° 306° (NW) 09:32:25 145.90 MHz
